Weather in Salman

Uzbekistan     41°18′36″N   71°40′48″E
temp.,
°C
wind,
m/s
gust,
m/s
humid.,
%
clouds,
%
prec.,
mm/h
press.,
hPa
HPBL,
m
17 april, sat
sat1723:00+15ene34380 0.0 101643
02:00+14nne33480 0.0 101626
05:00+13n22485 0.0 101718
08:00+17ene133752 0.0 1018532
11:00+20ese32305 0.0 10171629
14:00+22s22209 0.0 10152761
17:00+22s01185 0.0 10142644
20:00+19nne2230100 0.0 101529
18 april, sun
sun1823:00+17e2234100 0.0 101531
02:00+15ene2340100 0.0 101536
05:00+14ene3343100 0.0 101643
08:00+16e5639100 0.0 1018624
11:00+19e4431100 0.0 10171569
14:00+21w4328100 0.0 10162778
17:00+20s4425100 0.0 10172475
20:00+15ne564953 0.0 1019199
19 april, mon
mon1923:00+13nne475967 0.0 1020151
02:00+12nne465884 0.0 1020100
05:00+12nne4456100 0.0 102061
08:00+16ne3441100 0.0 1019421
11:00+19e4331100 0.0 10171885
14:00+20ene2226100 0.0 10142187
17:00+20ene2226100 0.0 10121813
20:00+18ne2233100 0.0 101331
20 april, tue
tue2023:00+16nne3338100 0.0 101233
02:00+15nne3343100 0.0 101129
05:00+13n334496 0.0 101024
08:00+18nne2235100 0.0 1010245
11:00+21s232481 0.0 10092012
14:00+23ssw4421100 0.0 10062715
17:00+22ssw5522100 0.0 10042405
20:00+19ssw61030100 0.0 1004512
21 april, wed
wed2123:00+15sw51051100 0.0 1006519
02:00+12ese4479100 0.8 1008504
05:00+10sse6781100 1.9 1009762
08:00+10se4572100 0.5 1011791
11:00+12s4559100 0.9 10121079
14:00+13sse5547100 0.5 10131491
17:00+11s6659100 0.7 10161139
20:00+9s5763100 0.1 1019808